This is the latest recevied weather packets stored in our database for station/object NC4J. If no packets are shown the sender has not sent any weather packets the latest 10 day(s).
| Time | Temp. | Humidity | Pressure | Rain* | Wind** | Luminosity | Snow |
|---|---|---|---|---|---|---|---|
| 1777612641 | 10.56° C | 61% | 1015 hPa | 0 mm | - | 0 W/m² | - |
| 1777612338 | 11.11° C | 60% | 1014.9 hPa | 0 mm | - | 0 W/m² | - |
| 1777612034 | 11.11° C | 58% | 1014.7 hPa | 0 mm | - | 0 W/m² | - |
| 1777611734 | 11.11° C | 66% | 1015 hPa | 0 mm | - | 0 W/m² | - |
| 1777611431 | 11.11° C | 61% | 1015 hPa | 0 mm | - | 0 W/m² | - |
| 1777611129 | 11.11° C | 58% | 1015 hPa | 0 mm | - | 0 W/m² | - |
| 1777610829 | 11.67° C | 58% | 1015 hPa | 0 mm | - | 0 W/m² | - |
| 1777610524 | 11.67° C | 61% | 1015 hPa | 0 mm | - | 0 W/m² | - |
| 1777610219 | 11.67° C | 55% | 1014.9 hPa | 0 mm | - | 0 W/m² | - |
| 1777609916 | 11.67° C | 57% | 1015.1 hPa | 0 mm | - | 0 W/m² | - |
| 1777609613 | 11.67° C | 55% | 1015.1 hPa | 0 mm | - | 0 W/m² | - |
| 1777609310 | 11.67° C | 59% | 1014.9 hPa | 0 mm | - | 0 W/m² | - |
| 1777609007 | 11.67° C | 59% | 1015 hPa | 0 mm | - | 0 W/m² | - |
| 1777608704 | 11.67° C | 60% | 1015.1 hPa | 0 mm | - | 0 W/m² | - |
| 1777608401 | 11.67° C | 56% | 1015.2 hPa | 0 mm | - | 0 W/m² | - |
| 1777608099 | 11.67° C | 59% | 1015.1 hPa | 0 mm | - | 0 W/m² | - |
| 1777607795 | 11.67° C | 54% | 1015.3 hPa | 0 mm | - | 0 W/m² | - |
| 1777607491 | 11.67° C | 56% | 1015.2 hPa | 0 mm | - | 0 W/m² | - |
| 1777607188 | 11.67° C | 55% | 1015.2 hPa | 0 mm | - | 0 W/m² | - |
| 1777606884 | 11.67° C | 59% | 1015.2 hPa | 0 mm | - | 0 W/m² | - |
| 1777606580 | 11.67° C | 58% | 1014.9 hPa | 0 mm | - | 0 W/m² | - |
| 1777606275 | 11.67° C | 62% | 1014.8 hPa | 0 mm | - | 0 W/m² | - |
| 1777605971 | 11.67° C | 57% | 1015.1 hPa | 0 mm | - | 0 W/m² | - |
| 1777605667 | 12.22° C | 56% | 1015.1 hPa | 0 mm | - | 0 W/m² | - |
| 1777605366 | 12.22° C | 59% | 1015 hPa | 0 mm | - | 0 W/m² | - |
* Rain latest hour (hover to see other rain measurements)
** Current wind speed in m/s (hover to see current wind gust speed)